Location: Neuvy Saint Sepulchre
(46.5953°N, 1.8122°E)
Time: 06:55:44
(UTC+01:00)

ISS - Pass Details

Date: 28 November 2019
Orbit: 411 x 421 km, 51.6° (Epoch: 06 December)

Event Time Altitude Azimuth Distance (km) Brightness Sun altitude
Rises 18:23:02 0° 256° (WSW) 2,349 2.2 -12.4°
Reaches altitude 10° 18:25:09 10° 261° (W) 1,491 0.5 -12.8°
Maximum altitude 18:28:26 55° 340° (NNW) 508 -3.4 -13.3°
Enters shadow 18:30:13 24° 50° (NE) 914 -2.6 -13.6°
